Regional Weather Roundup
Issued by NWS Upton, NY

Current Version | Previous Version | Text Only | Print | Product List | Glossary Off
Versions: 1 2 3 4 5 6 7 8 9 10 11 12 13 14 15 16 17 18 19 20 21 22 23 24 25 26 27 28 29 30 31 32 33 34 35 36 37 38 39 40 41 42 43 44 45 46 47 48 49 50
000 ASUS41 KOKX 050505 RWROKX REGIONAL WEATHER ROUNDUP NATIONAL WEATHER SERVICE NEW YORK NY 1200 AM EST THU MAR 05 2015 NOTE: "FAIR" INDICATES FEW OR NO CLOUDS BELOW 12,000 FEET WITH NO SIGNIFICANT WEATHER AND/OR OBSTRUCTIONS TO VISIBILITY. NYZ071-072-176-178-NJZ106-104-050600- NEW YORK CITY METRO AREA CITY SKY/WX TMP DP RH WIND PRES REMARKS CENTRAL PARK LGT RAIN 40 37 89 W8 29.92S FOG WCI 34 LAGUARDIA APRT LGT RAIN 41 37 86 NW8 29.90F FOG KENNEDY INTL LGT RAIN 41 38 89 W8 29.91F FOG NEWARK/LIBERTY LGT RAIN 41 39 93 W6 29.92S FOG BRNX BOT. GARD N/A 41 37 87 W5 29.91S TETERBORO LGT RAIN 40 37 89 CALM 29.90S FOG $$ NYZ177-179-078>081-050600- LONG ISLAND NEW YORK CITY SKY/WX TMP DP RH WIND PRES REMARKS FARMINGDALE CLOUDY 39 39 100 W3 29.90F FOG ISLIP LGT RAIN 39 38 96 W5 29.88F VSB 3/4 SHIRLEY LGT RAIN 40 38 93 W3 29.90F FOG WESTHAMPTON LGT RAIN N/A N/A N/A SW5 29.89F MONTAUK POINT N/A 39 37 92 W3 29.90R $$ NYZ052-065-067-050600- HUDSON VALLEY CITY SKY/WX TMP DP RH WIND PRES REMARKS WHITE PLAINS LGT RAIN 38 36 92 W7 29.88F FOG WCI 33 NEWBURGH CLOUDY 39 34 81 W12 29.90S WCI 32 MONTGOMERY LGT RAIN 37 34 89 W6 29.89S WCI 32 POUGHKEEPSIE MIX PCPN 37 33 85 NW7 29.90R WCI 32 ALBANY CLOUDY 33 21 61 NW7 29.92F WCI 27 $$ NJZ001-105-106-008-010-013-015-019>022-104-050600- NEW JERSEY CITY SKY/WX TMP DP RH WIND PRES REMARKS NEWARK/LIBERTY LGT RAIN 41 39 93 W6 29.92S FOG TETERBORO LGT RAIN 40 37 89 CALM 29.90S FOG CALDWELL LGT RAIN 38 36 92 CALM 29.92R FOG MORRISTOWN RAIN 41 37 87 W3 29.91S SOMERVILLE LGT RAIN 39 36 89 CALM 29.91S FOG SUSSEX RAIN 37 34 89 SW3 29.91R ANDOVER N/A 36 35 96 CALM 29.91S TRENTON LGT RAIN 39 36 89 NW6 29.92S FOG WCI 35 MILLVILLE LGT RAIN N/A N/A N/A N6 29.93R ATLANTIC CITY LGT RAIN 42 40 92 N6 29.92S FOG WRIGHTSTOWN LGT RAIN 40 40 100 NW6 29.90F TOMS RIVER CLOUDY 45 39 81 NW10 29.93S BELMAR CLOUDY 39 36 87 W7 29.92R WCI 34 $$ PAZ047>061-062-071-050600- EASTERN PENNSYLVANIA CITY SKY/WX TMP DP RH WIND PRES REMARKS PHILADELPHIA LGT RAIN 40 38 93 NW6 29.94F FOG ALLENTOWN LGT RAIN 36 32 85 W7 29.93F FOG WCI 30 SCRANTON LGT SNOW 34 31 88 NW7 29.91S VSB 3/4 WCI 28 $$ CTZ002-004>006-009-010-012-RIZ004-006-007-MAZ004-011-015-050600- SOUTHERN NEW ENGLAND IN CT CITY SKY/WX TMP DP RH WIND PRES REMARKS BRADLEY INTL LGT RAIN 39 29 67 N7 29.88R WCI 34 HARTFORD LGT RAIN 40 33 76 SW9 29.88F WCI 34 DANBURY LGT RAIN 37 33 85 W6 29.88F FOG WCI 32 WTRBRY/OXFORD CLOUDY 37 30 75 W6 29.87F WCI 33 BRIDGEPORT LGT RAIN 36 36 100 W5 29.89F FOG WCI 32 MERIDEN LGT RAIN 35 33 92 CALM 29.87F FOG NEW HAVEN LGT RAIN 35 35 100 CALM 29.88F FOG CHESTER RAIN 37 37 100 W5 29.87F WCI 34 GROTON LGT RAIN 34 34 100 CALM 29.88F FOG WILLIMANTIC CLOUDY 35 31 85 CALM 29.88R IN RI CITY SKY/WX TMP DP RH WIND PRES REMARKS PROVIDENCE LGT RAIN 37 34 89 SW3 29.87S BLOCK ISLAND CLOUDY 37 34 87 W10 29.88S WCI 30 WESTERLY LGT RAIN 36 36 100 SW5 29.89S FOG WCI 32 IN MA CITY SKY/WX TMP DP RH WIND PRES REMARKS BOSTON CLOUDY 38 30 73 SW6 29.87R WCI 33 WORCESTER CLOUDY 35 27 72 W9 29.83R WCI 28 WESTFIELD CLOUDY 37 26 64 NW7 29.87S WCI 32 PROVINCETOWN CLOUDY 36 34 93 SW8 29.86F WCI 29 NANTUCKET LGT RAIN 35 33 92 SW7 29.89S FOG WCI 29 $$ ANZ330-335-338-340-345-350-353-355-050600- COASTAL MARINE OBSERVATIONS STATION/POSITION TIME SKY/WX TEMP WIND PRES VSBY WAVE AIR SEA DIR/SP/G HT/PER (UTC) (F) (DEG/KT/KT) (MB) (MI) (FT/S) NY HARB ENTRANCE 0500 40 38 260/ 8/ 8 1012.6 4/ 8 4S FIRE IS 0500 33 N/A 5/10 20S FIRE ISLAND 0400 34 1013.5 5/ 9 23SW MTP 0500 N/A 6/ 9 HUDSON CANYON NOT AVBL EXECUTION ROCKS NOT AVBL WESTERN LI SOUND NOT AVBL CENTRAL LI SOUND NOT AVBL EASTERN LI SOUND NOT AVBL ROBBINS REEF 0500 41 280/ 8/ 9 1011.4 $$ >>>>>>>>>>>>>>>>>>>>>>>>>>>> KEY <<<<<<<<<<<<<<<<<<<<<<<<<<< > < > SKY/WX - SKY CONDITION/PRESENT WEATHER < > TMP - TEMPERATURE IN FAHRENHEIT < > DP - DEWPOINT IN FAHRENHEIT < > RH - RELATIVE HUMIDITY IN PERCENT < > WIND - DIRECTION AND SPEED IN MPH < > PRES - MEAN SEA LEVEL PRESSURE IN INCHES OF HG < > WCI - WIND CHILL INDEX < > VSB - VISIBILITY IN MILES < > HX - HEAT INDEX < > TC - TEMPERATURE IN CELSIUS < > VRB - VARIABLE WIND DIRECTION < > < >>>>>>>>>>>>>>>>>>>>>>>>>>>> KEY <<<<<<<<<<<<<<<<<<<<<<<<<<<

USA.gov is the U.S. government's official web portal to all federal, state and local government web resources and services.